Weather History for KAXA - August, 2012

Change the Weather History Date:

Friday, August 24, 2012

  Actual Average Record
Temperature  
Mean Temperature 76 °F -  
Max Temperature 87 °F 78 °F 95 °F (2003)
Min Temperature 66 °F 59 °F 50 °F (2008)
Cooling Degree Days 12    
Growing Degree Days 26 (Base 50)    
Moisture  
Dew Point 62 °F    
Average Humidity 62    
Maximum Humidity 88    
Minimum Humidity 43    
Precipitation  
Precipitation 0.00 in - - ()
Sea Level Pressure  
Sea Level Pressure 29.88 in    
Wind  
Wind Speed 11 mph (SSW)    
Max Wind Speed 21 mph    
Max Gust Speed 28 mph    
Visibility 10 miles    
Events      
Averages and records for this station are not official NWS values.
T = Trace of Precipitation, MM = Missing Value Source: NWS Daily Summary

Daily Weather History Graph

Daily Weather History Graph

Search for Another Location

Airport or City:

Trip Planner

Search our weather history database for the weather conditions in past years. The results will help you decide how hot, cold, wet, or windy it might be!

Date:

Astronomy

Aug. 24, 2012 Rise Set
Actual Time 6:33 AM CDT 8:04 PM CDT
Civil Twilight 6:03 AM CDT 8:34 PM CDT
Nautical Twilight 5:27 AM CDT 9:10 PM CDT
Astronomical Twilight 4:48 AM CDT 9:48 PM CDT
Moon 2:40 PM CDT (8/24) No Moon Set
Length of Visible Light 14h 30m
Length of Day
13h 31m
First Quarter, 52% of the Moon is Illuminated
Aug 24
First Quarter
Aug 31
Full
Sep 8
Last Quarter
Sep 15
New
Sep 22
First Quarter

Hourly Weather History & Observations

Time (CDT) Temp. Heat Index Dew Point Humidity Pressure Visibility Wind Dir Wind Speed Gust Speed Precip Events Conditions
12:15 AM 77.0 °F - 55.4 °F 47% 29.87 in 10.0 mi SSW 10.4 mph - N/A   Partly Cloudy
12:35 AM 75.2 °F - 55.4 °F 50% 29.87 in 10.0 mi South 8.1 mph - N/A   Scattered Clouds
12:55 AM 75.2 °F - 55.4 °F 50% 29.87 in 10.0 mi South 8.1 mph - N/A   Mostly Cloudy
1:15 AM 75.2 °F - 55.4 °F 50% 29.88 in 10.0 mi SSW 9.2 mph - N/A   Overcast
1:35 AM 73.4 °F - 57.2 °F 57% 29.87 in 10.0 mi South 8.1 mph - N/A   Overcast
1:55 AM 73.4 °F - 57.2 °F 57% 29.87 in 10.0 mi SSW 8.1 mph - N/A   Scattered Clouds
2:15 AM 71.6 °F - 57.2 °F 60% 29.86 in 10.0 mi SSW 8.1 mph - N/A   Mostly Cloudy
2:35 AM 69.8 °F - 57.2 °F 64% 29.86 in 10.0 mi SSW 9.2 mph - N/A   Scattered Clouds
2:55 AM 69.8 °F - 57.2 °F 64% 29.86 in 10.0 mi SSW 8.1 mph - N/A   Partly Cloudy
3:15 AM 68.0 °F - 57.2 °F 68% 29.86 in 10.0 mi SSW 8.1 mph - N/A   Clear
3:35 AM 68.0 °F - 57.2 °F 68% 29.86 in 10.0 mi SSW 8.1 mph - N/A   Clear
3:55 AM 68.0 °F - 57.2 °F 68% 29.86 in 10.0 mi SSW 9.2 mph - N/A   Clear
4:15 AM 69.8 °F - 57.2 °F 64% 29.86 in 10.0 mi SSW 11.5 mph - N/A   Clear
4:35 AM 69.8 °F - 59.0 °F 68% 29.87 in 10.0 mi SSW 9.2 mph - N/A   Clear
4:55 AM 69.8 °F - 59.0 °F 68% 29.87 in 10.0 mi SSW 8.1 mph - N/A   Clear
5:15 AM 68.0 °F - 60.8 °F 78% 29.88 in 10.0 mi SSW 6.9 mph - N/A   Clear
5:35 AM 68.0 °F - 60.8 °F 78% 29.88 in 10.0 mi SSW 6.9 mph - N/A   Clear
5:55 AM 68.0 °F - 60.8 °F 78% 29.88 in 10.0 mi South 6.9 mph - N/A   Clear
6:15 AM 68.0 °F - 60.8 °F 78% 29.89 in 10.0 mi SSW 8.1 mph - N/A   Partly Cloudy
6:35 AM 66.2 °F - 60.8 °F 83% 29.89 in 10.0 mi South 8.1 mph - N/A   Partly Cloudy
6:55 AM 66.2 °F - 62.6 °F 88% 29.90 in 10.0 mi South 6.9 mph - N/A   Clear
7:15 AM 66.2 °F - 60.8 °F 83% 29.90 in 10.0 mi South 6.9 mph - N/A   Clear
7:35 AM 68.0 °F - 62.6 °F 83% 29.91 in 10.0 mi South 6.9 mph - N/A   Clear
7:55 AM 68.0 °F - 62.6 °F 83% 29.91 in 10.0 mi South 9.2 mph - N/A   Clear
8:15 AM 68.0 °F - 62.6 °F 83% 29.92 in 10.0 mi South 9.2 mph - N/A   Clear
8:35 AM 69.8 °F - 62.6 °F 78% 29.92 in 10.0 mi South 10.4 mph - N/A   Clear
8:55 AM 71.6 °F - 64.4 °F 78% 29.92 in 10.0 mi SSW 11.5 mph 17.3 mph N/A   Clear
9:15 AM 73.4 °F - 66.2 °F 78% 29.92 in 10.0 mi South 13.8 mph - N/A   Clear
9:35 AM 75.2 °F - 66.2 °F 73% 29.92 in 10.0 mi SW 12.7 mph - N/A   Clear
9:55 AM 77.0 °F - 66.2 °F 69% 29.92 in 10.0 mi SW 13.8 mph - N/A   Clear
10:15 AM 78.8 °F - 66.2 °F 65% 29.92 in 10.0 mi SSW 12.7 mph - N/A   Clear
10:35 AM 78.8 °F - 66.2 °F 65% 29.92 in 10.0 mi SSW 13.8 mph 20.7 mph N/A   Clear
10:55 AM 78.8 °F - 66.2 °F 65% 29.92 in 10.0 mi SW 16.1 mph - N/A   Clear
11:15 AM 80.6 °F 82.7 °F 66.2 °F 61% 29.91 in 10.0 mi SSW 13.8 mph 19.6 mph N/A   Clear
11:35 AM 82.4 °F 84.6 °F 66.2 °F 58% 29.91 in 10.0 mi SSW 13.8 mph - N/A   Clear
11:55 AM - - - N/A% - - North - - N/A   Unknown
12:15 PM 84.2 °F 86.6 °F 66.2 °F 55% 29.90 in 10.0 mi South 13.8 mph - N/A   Unknown
12:35 PM 84.2 °F 86.6 °F 66.2 °F 55% 29.89 in 10.0 mi SSW 15.0 mph 20.7 mph N/A   Clear
1:15 PM 86.0 °F 88.2 °F 66.2 °F 51% 29.89 in 10.0 mi South 20.7 mph - N/A   Partly Cloudy
1:35 PM 86.0 °F 88.2 °F 66.2 °F 51% 29.89 in 10.0 mi SSW 16.1 mph 25.3 mph N/A   Scattered Clouds
1:55 PM 86.0 °F 88.2 °F 66.2 °F 51% 29.89 in 10.0 mi SSW 19.6 mph 26.5 mph N/A   Partly Cloudy
2:15 PM 86.0 °F 87.3 °F 64.4 °F 48% 29.88 in 10.0 mi SSW 17.3 mph 25.3 mph N/A   Partly Cloudy
2:35 PM 86.0 °F 87.3 °F 64.4 °F 48% 29.88 in 10.0 mi South 17.3 mph 25.3 mph N/A   Partly Cloudy
2:55 PM 86.0 °F 87.3 °F 64.4 °F 48% 29.87 in 10.0 mi South 20.7 mph 26.5 mph N/A   Partly Cloudy
3:15 PM 86.0 °F 87.3 °F 64.4 °F 48% 29.87 in 10.0 mi SSW 16.1 mph 23.0 mph N/A   Scattered Clouds
3:35 PM 87.8 °F 89.4 °F 64.4 °F 46% 29.87 in 10.0 mi SSW 18.4 mph - N/A   Partly Cloudy
3:55 PM 86.0 °F 86.6 °F 62.6 °F 45% 29.87 in 10.0 mi South 13.8 mph 24.2 mph N/A   Partly Cloudy
4:15 PM 86.0 °F 86.6 °F 62.6 °F 45% 29.87 in 10.0 mi South 16.1 mph 21.9 mph N/A   Scattered Clouds
4:35 PM 87.8 °F 88.5 °F 62.6 °F 43% 29.86 in 10.0 mi South 18.4 mph 27.6 mph N/A   Scattered Clouds
4:55 PM 86.0 °F 86.1 °F 60.8 °F 43% 29.86 in 10.0 mi South 16.1 mph 24.2 mph N/A   Partly Cloudy
5:15 PM 86.0 °F 86.6 °F 62.6 °F 45% 29.86 in 10.0 mi South 16.1 mph 26.5 mph N/A   Partly Cloudy
5:35 PM 86.0 °F 86.6 °F 62.6 °F 45% 29.86 in 10.0 mi South 19.6 mph 25.3 mph N/A   Partly Cloudy
5:55 PM 86.0 °F 86.6 °F 62.6 °F 45% 29.86 in 10.0 mi South 17.3 mph 24.2 mph N/A   Scattered Clouds
6:15 PM 84.2 °F 85.0 °F 62.6 °F 48% 29.86 in 10.0 mi South 12.7 mph 18.4 mph N/A   Partly Cloudy
6:35 PM 84.2 °F 85.0 °F 62.6 °F 48% 29.86 in 10.0 mi South 11.5 mph 19.6 mph N/A   Partly Cloudy
6:55 PM 82.4 °F 83.4 °F 62.6 °F 51% 29.86 in 10.0 mi South 13.8 mph 19.6 mph N/A   Partly Cloudy
7:15 PM 82.4 °F 83.4 °F 62.6 °F 51% 29.87 in 10.0 mi South 12.7 mph 19.6 mph N/A   Clear
7:35 PM 80.6 °F 81.8 °F 62.6 °F 54% 29.87 in 10.0 mi South 11.5 mph - N/A   Clear
7:55 PM 78.8 °F - 62.6 °F 57% 29.87 in 10.0 mi South 10.4 mph - N/A   Clear
8:15 PM 78.8 °F - 62.6 °F 57% 29.88 in 10.0 mi South 12.7 mph - N/A   Clear
8:35 PM 77.0 °F - 62.6 °F 61% 29.89 in 10.0 mi South 11.5 mph - N/A   Clear
8:55 PM 75.2 °F - 62.6 °F 65% 29.89 in 10.0 mi South 10.4 mph - N/A   Clear
9:15 PM 73.4 °F - 62.6 °F 69% 29.90 in 10.0 mi South 9.2 mph - N/A   Clear
9:35 PM 71.6 °F - 62.6 °F 73% 29.90 in 10.0 mi South 8.1 mph - N/A   Clear
9:55 PM 71.6 °F - 62.6 °F 73% 29.90 in 10.0 mi South 9.2 mph - N/A   Clear
10:15 PM 71.6 °F - 62.6 °F 73% 29.90 in 10.0 mi South 9.2 mph - N/A   Clear
10:35 PM 69.8 °F - 62.6 °F 78% 29.90 in 10.0 mi South 8.1 mph - N/A   Scattered Clouds
10:55 PM 69.8 °F - 64.4 °F 83% 29.90 in 10.0 mi South 10.4 mph - N/A   Partly Cloudy
11:35 PM 71.6 °F - 64.4 °F 78% 29.90 in 10.0 mi SSE 8.1 mph - N/A   Partly Cloudy
11:55 PM 71.6 °F - 62.6 °F 73% 29.90 in 10.0 mi South 9.2 mph - N/A   Clear